Weather Roundup
Issued by NWS Chicago, IL

Home | Current Version | Previous Version | Text Only | Print | Product List | Glossary On
Versions: 1 2 3 4 5 6 7 8 9 10 11 12 13 14 15 16 17 18 19 20 21 22 23 24 25 26 27 28 29 30 31 32 33 34 35 36 37 38 39 40 41 42 43 44 45 46 47 48 49 50
369
NZUS59 KLOT 312108
HRRLOT

CHICAGO AREA WEATHER ROUNDUP
NATIONAL WEATHER SERVICE CHICAGO/ROMEOVILLE IL
400 PM CDT TUE MAY 31 2016

NOTE: "FAIR" INDICATES FEW OR NO CLOUDS BELOW 12,000 FEET WITH NO
SIGNIFICANT WEATHER AND/OR OBSTRUCTIONS TO VISIBILITY.

* THESE STATIONS ARE NOT UNDER NWS QUALITY CONTROL. THEY ALSO MAY NOT
  REPORT WEATHER SUCH AS PRECIPITATION OR FOG.

ILZ005-006-012>014-019>023-312200-
NORTHEAST ILLINOIS

CITY           SKY/WX    TMP DP  RH WIND       PRES   REMARKS
OHARE          TSTM      66  63  90 NW16      30.01R FOG
MIDWAY         TSTM      66  61  84 NW13      30.00R
AURORA         LGT RAIN  67  64  90 N13       29.98F
LANSING*       CLOUDY    71  62  72 NW9       29.98R
JOLIET*        CLOUDY    68  65  89 N8G18     29.99R
WAUKEGAN       CLOUDY    72  61  68 W13G23    30.02R
DUPAGE AIRPORT RAIN      65  62  90 N14       30.00F
WHEELING       HVY RAIN  68  61  78 W14G22    30.05R
KANKAKEE*      CLOUDY    69  62  77 N13G18    29.97R
MORRIS*        CLOUDY    67  65  91 N5        29.98R
LEWIS AIRPORT* PTSUNNY   66  62  86 N14G22    29.99R
$$

WIZ051-052-058>065-066-070>072-312200-
SOUTHEAST WISCONSIN

CITY           SKY/WX    TMP DP  RH WIND       PRES   REMARKS
MILWAUKEE      PTSUNNY   72  59  63 N10       30.00F
KENOSHA*       CLOUDY    71  60  68 W18       30.03R
RACINE*        CLOUDY    74  57  55 N9        30.02S
BURLINGTON     RAIN      64  62  92 CALM      30.04R
WAUKESHA       CLOUDY    63  61  94 W6        30.03F
WEST BEND      LGT RAIN  64  59  82 CALM      30.01F
$$

INZ001>003-010>013-019-020-312200-
NORTHWEST INDIANA

CITY           SKY/WX    TMP DP  RH WIND       PRES   REMARKS
GARY*          CLOUDY    73  68  83 NW5       29.98R
MICHIGAN CITY* NOT AVBL
RENSSELAER*    NOT AVBL
$$

LMZ740>746-312200-
SOUTHERN LAKE MICHIGAN

STATION/POSITION TIME  SKY/WX   TEMP WIND        PRES    VSBY
                                AIR  DIR/SP/G
                 (UTC)          (F)  (DEG/KT/KT) (MB)    (MI)
HARRISON CRIB    2000            71   70/ 17/ 17   N/A
BURNHAM HARBOR   2100            66  310/ 13/ 26   N/A
CALUMET HARBOR   2000            71   40/ 10/ 14 1013.3F
BURNS HARBOR     2000            73   70/ 11/ 17 1014.2F
MICHIGAN CITY    2000            79   30/ 12/ 13   N/A
$$

ABBREVIATIONS USED IN REMARKS
   TC - TEMPERATURE IN CELSIUS
  WCI - WIND CHILL INDEX
   HX - HEAT INDEX
  VSB - VISIBILITY
$$




USA.gov is the U.S. government's official web portal to all federal, state and local government web resources and services.